Location:  
MeteoStar


Sort by weather type Sort by elevation Sort by visibility Sort from west to east north Sort from north to south Alphabetically Sort from strongest wind speed Sort from lowest to highest pressure Sort from highest to lowest dew point temperature Sort coolest temperatures to warmest Sort warm temperatures to coolest
 Metric

Current Observations for United Kingdom sorted by pressure

Baltasound15:00ZNot Avail.44 35201018.9WNW 20 Gusting to 32 3649
Scatsa / Shetland Island14:20ZClear46 372.251019.2W 19 3972
Lerwick15:00ZPartly Cloudy46 31201019.7NW 21 Gusting to 29 38269
Sumburgh Cape 14:20ZShowers nearby45 36201020.1WNW 13 3916
Inverbervie15:00ZNot Avail.59 44301020.2W 13 59439
Dundee / Riverside14:20ZClear57 462.251021.1WSW 15 5713
Leuchars14:50ZPartly Cloudy61 43251021.1W 17 6139
Aberdeen / Dyce14:20ZCloudy52 45301021.2N 8 49213
Charterhall15:00ZNot Avail.62 44301021.7SW 14 62367
Boscombe Down14:50ZNot Avail.70 48201022.1NE 4 70406
Tiree14:20ZCloudy48 481.51022.1N 5 4639
Boulmer14:50ZPartly Cloudy61 41201022.1WSW 15 6175
Kirkwall Airport14:20ZClear48 36201022.2W 12 4368
Wick14:20ZCloudy46 34201022.2NNW 12 40127
Edinburgh Airport14:20ZClear61 432.251022.2WSW 17 61134
Strathallan15:00ZNot Avail.58 46301022.2SW 13 58114
Cardinham15:00ZNot Avail.66 48201022.4SSE 8 66656
Drumalbin15:00ZNot Avail.57 42351022.5W 14 57803
Loftus Samos15:00ZClear67 44201022.5WSW 9 67190
Herstmonceux15:00ZNot Avail.74 4981022.5ESE 5 74170
Kenley15:00ZHaze68 5071022.7NNE 5 68557
Dunkeswell Aerodrome15:00ZNot Avail.65 49191022.7E 7 65826
Chivenor15:00ZNot Avail.62 50201022.9WSW 8 6226
Little Rissington15:00ZNot Avail.67 46151022.9SSE 5 67705
High Wicombe Hqstc15:00ZNot Avail.69 46101022.9S 5 69669
Liscombe15:00ZNot Avail.64 48141022.9SE 5 641141
Plymouth15:00ZNot Avail.62 4991023SSW 8 62164
Lyneham15:00ZNot Avail.68 50201023.0ENE 5 68475
Spadeadam15:00ZNot Avail.57 40201023.0W 19 Gusting to 25 57935
Sennybridge15:00ZNot Avail.65 43201023.0S 6 651007
Saint Catherines Point15:00ZNot Avail.61 5071023E 9 6152
Belfast / Harbour14:20ZCloudy63 45251023.1SW 7 6316
Staverton Private 14:20ZNot Avail.70 46251023.1CALM7095
Yeovilton14:20ZClear70 5091023.1ENE 2 7075
Cardiff-Wales Airport14:20ZClear66 4691023.1ESE 8 66219
Scilly; Saint MaryS14:20ZNot Avail.59 41151023.1ENE 6 59101
Bournemouth Airport14:20ZNot Avail.64 48151023.1S 9 6436
Alderney / Channel Island14:20ZNot Avail.57 50151023.1N 6 57232
Guernsey Airport14:20ZNot Avail.63 5481023.1NNW 5 63334
Jersey Airport14:20ZNot Avail.68 52201023.1WNW 5 68275
Shoreham Airport14:20ZClear61 5041023.1S 7 616
London / Gatwick Airport14:20ZNot Avail.72 5261023.1NE 4 72203
London City Airport14:20ZClear66 4661023.1E 11 6616
Farnborough14:20ZNot Avail.68 4871023.1N 3 68213
London / Heathrow Airport14:20ZClear70 4871023.1E 5 7078
Lydd Airport 14:20ZClear64 5261023.1ENE 15 649
Tees-Side14:20ZNot Avail.64 43201023.1WSW 10 64121
Inverness / Dalcross14:20ZLight Drizzle45 432.251023.1NE 10 4029
Glasgow Airport14:20ZMostly Cloudy57 462.251023.1SW 12 5726
Benbecula14:20ZClear50 362.251023.1N 9 4619
Stornoway14:20ZClear50 30251023.1NW 7 4729
Kinloss14:50ZDrizzle45 431.251023.1NE 7 4122
Lossiemouth14:15ZRain45 431.251023.1NNE 9 4042
Exeter Airport14:20ZClear70 521.251023.1SSE 8 7098
Benson14:20ZNot Avail.70 48111023.1E 4 70206
Brize Norton14:20ZNot Avail.68 4841023.1ENE 5 68288
Northolt14:20ZNot Avail.72 46111023.1SE 8 72124
Coningsby Royal Air Force Base14:50ZNot Avail.68 43151023.1S 3 6822
Leconfield14:50ZMostly Cloudy66 43151023.1SW 7 6619
Topcliffe Royal Air Force Base 14:50ZClear66 45201023.1WSW 11 6691
Marham14:20ZClear70 45121023.1S 2 7075
Culdrose14:29ZNot Avail.59 39151023.2WSW 6 59255
Luton Airport 14:20ZClear68 4891023.2N 4 68524
Newcastle 14:20ZClear63 41201023.2W 9 63265
Odiham14:22ZNot Avail.70 5091023.2ENE 5 70403
Leeming14:20ZNot Avail.64 45251023.2SW 9 64131
Wittering15:00ZNot Avail.69 44251023.2NNE 2 69275
Tulloch Bridge15:00ZLight Rain48 46131023.2SSW 8 44777
Warcop Range15:00ZNot Avail.60 43301023.2WSW 11 60744
Redesdale15:00ZNot Avail.60 40451023.2WSW 9 60692
Lake Vyrnwy15:00ZNot Avail.62 46351023.2E 1 621181
Portglenone15:00ZNot Avail.57 47201023.2WSW 4 57209
Linton-On-Ouse15:00ZNot Avail.65 44151023.4W 10 6552
Langdon Bay15:00ZNot Avail.65 4971023.4NNE 12 65383
Pembrey Sands15:00ZNot Avail.63 42201023.5WSW 7 639
Manston15:00ZHaze63 5041023.5NE 6 63180
Loch Glascanoch15:00ZClear42 4141023.5W 13 35869
Altnaharra15:00ZClear45 39181023.5SE 4 43265
Shap15:00ZNot Avail.59 44351023.5WSW 10 59816
Trawscoed15:00ZNot Avail.64 47151023.5NNW 6 64206
Bedford15:00ZNot Avail.69 45101023.5E 3 69278
Camborne15:00ZClear57 41301023.5N 7 57285
Isle Of Portland15:00ZHaze58 4871023.5E 5 58173
Machrihanish15:00ZNot Avail.55 45151023.7W 3 5542
Prestwick Rnas15:00ZNot Avail.55 44251023.7WSW 8 5585
Bridlington Mrsc15:00ZNot Avail.56 42201023.7E 4 5649
Bingley15:00ZNot Avail.62 44151023.7W 6 62859
Nottingham Weather Centre15:00ZNot Avail.68 41151023.7WNW 5 68383
Milford Haven15:00ZNot Avail.64 41351023.7W 5 64144
Castlederg15:00ZClear56 48201023.7WSW 7 56167
Capel Curig15:00ZNot Avail.64 44181023.9W 12 64708
Pershore15:00ZNot Avail.69 43201023.9E 4 69104
Shoeburyness15:00ZHaze60 4761023.9E 9 606
Lough Fea15:00ZNot Avail.56 47201023.9W 8 56738
Holbeach15:00ZNot Avail.61 4991024ENE 11 619
Aultbea15:00ZNot Avail.46 37131024NNE 6 4336
Dundrennan15:00ZNot Avail.53 42151024SSW 8 50374
Carlisle15:00ZNot Avail.58 41351024.0N 5891
Ballypatrick Forest15:00ZNot Avail.53 46161024.0N 6 51511
Birmingham / Airport14:20ZNot Avail.68 43251024.1N 3 68324
Bristol / Lulsgate 14:20ZClear66 4891024.1N 3 66620
Liverpool Airport 14:20ZPartly Cloudy68 4691024.1N 3 6885
Biggin Hill 14:20ZNot Avail.66 5061024.1NNE 6 66600
Southend-On-Sea 14:20ZNot Avail.63 4671024.1E 8 6349
Humberside14:20ZClear70 4161024.1WSW 6 70101
Leeds And Bradford14:20ZPartly Cloudy64 4361024.1W 9 64682
Hawarden14:20ZClear63 43201024.1NW 10 6332
Isle Of Man / Ronaldsway Airport14:20ZClear54 43201024.1S 4 5355
East Midlands14:20ZNot Avail.68 41201024.1N 2 68308
Shawbury14:20ZClear66 46201024.1SW 4 66249
Valley14:20ZClear59 41201024.1W 7 593
West Freugh15:00ZNot Avail.58 43201024.1S 9 5836
Prestwick Airport14:20ZClear55 452.251024.1SW 9 5565
Norwich Weather Centre14:20ZNot Avail.64 451.251024.1E 7 6445
Stansted Airport14:20ZClear68 461.251024.1SE 8 Gusting to 19 68347
Cranfield14:20ZNot Avail.68 461.251024.1ENE 6 68364
Waddington14:20ZNot Avail.68 41201024.1SSW 3 68223
Wainfleet15:00ZNot Avail.59 42131024.1E 12 599
Mumbles15:00ZNot Avail.63 42351024.1SW 4 63114
Belfast / Aldergrove Airport14:20ZMostly Cloudy61 46251024.2WSW 8 61265
Manchester Airport14:20ZClear64 451.621024.2WNW 4 64226
Donna Nook15:00ZNot Avail.56 4561024.3E 9 5626
Crosby14:50ZNot Avail.59 48201024.4N 5926
Saint Bees Head15:00ZNot Avail.54 40201024.5S 6 52406
Rhyl15:00ZNot Avail.60 40351024.5NNW 6 60252
Weybourne15:00ZNot Avail.53 4681024.5E 11 4968
Blackpool Airport14:20ZNot Avail.59 4161025.1NW 8 5932
Aberdaron15:00ZNot Avail.57 43351025.1WSW 5 57311